Regional Weather Roundup
Issued by NWS

Home | Current Version | Previous Version | Text Only | Print | Product List | Glossary Off
Versions: 1 2 3 4 5 6 7 8 9 10 11 12 13 14 15 16 17 18 19 20 21 22 23 24 25 26 27 28

000
ASUS45 KSLC 251110
RWRUT

UTAH REGIONAL WEATHER ROUNDUP
NATIONAL WEATHER SERVICE SALT LAKE CITY UT
400 AM MST SAT FEB 25 2017

UTZ001>011-023>025-251200-

NORTHERN UTAH

CITY           SKY/WX    TMP DP  RH WIND       PRES   REMARKS
BRIGHAM CITY     N/A     24  19  80 N6        30.11F WCI  17
HILL AFB       MOCLDY    17  10  74 E13       30.08F WCI   4
LOGAN          MOCLDY    18  14  84 N3        30.10F
OGDEN          MOCLDY    18  13  80 S12       30.09F WCI   5
SALT LAKE CITY MOCLDY    22  12  65 SE8       30.11F WCI  12
TOOELE VALLEY  CLOUDY    23  14  68 S12       30.11F WCI  12
WENDOVER       MOCLDY    25  16  68 CALM      30.10F
HEBER CITY     MOCLDY     0  -4  85 E5        30.08F WCI -10
WEST JORDAN    PTCLDY    24  21  89 S9        30.10F WCI  14

$$

UTZ011>015-024>027-251200-

CENTRAL/NORTHEAST UTAH

CITY           SKY/WX    TMP DP  RH WIND       PRES   REMARKS
PROVO AIRPORT  MOCLDY    13   8  81 SE10      30.14F WCI   0
MOAB/CANYONLAN CLEAR     20  10  65 W3        30.08F
DELTA          CLEAR     16  12  86 CALM      30.09F
PRICE          PTCLDY    13   7  77 N5        30.04F WCI   5
ROOSEVELT      CLOUDY    14  10  85 CALM      30.10F
VERNAL         CLOUDY    11   6  81 NW3       30.07F

$$

UTZ013>016-019>022-027-251200-

SOUTHERN UTAH

CITY           SKY/WX    TMP DP  RH WIND       PRES   REMARKS
BRYCE CANYON   CLEAR     -6 -11  79 SW6       30.01F WCI -19
CEDAR CITY     CLEAR     18   7  62 E3        30.03F
MILFORD        CLOUDY    16  10  77 S3        30.06F
ST GEORGE      PTSUNNY   30  17  58 CALM      30.12F
HANKSVILLE     CLEAR     16   3  57 CALM      30.14S
BLANDING       CLEAR     18   5  57 N6        30.13S WCI  10

$$

REGIONAL REPORTS     COLORADO/ARIZONA

CITY           SKY/WX    TMP DP  RH WIND       PRES   REMARKS
CRAIG, CO      CLOUDY    11   6  81 CALM      30.04F
GRAND JUNCTION CLEAR     16  14  92 E6        30.08F WCI   7
RIFLE, CO      CLOUDY    10   7  87 CALM      30.08F
MONTROSE, CO   CLEAR     13   7  77 S7        30.10F WCI   3
CORTEZ, CO     CLEAR     13   9  84 NE3       30.08S
COLORADO CITY    N/A     19  16  86 S5        30.10F WCI  13
PAGE, AZ       CLEAR     29   6  38 SE3       30.09F
GRAND CANYON   CLEAR     13   9  84 CALM      30.06F
KINGMAN, AZ    CLEAR     26   8  46 SE3       30.09F
FLAGSTAFF, AZ  CLEAR     16  10  77 SW5       30.05F WCI   9

$$

REGIONAL REPORTS    NEVADA/IDAHO/WYOMING

CITY           SKY/WX    TMP DP  RH WIND       PRES   REMARKS
LAS VEGAS, NV  CLEAR     39  21  48 S6        30.07F WCI  35
ELY, NY        CLOUDY    10   3  73 SE9       30.02F WCI  -3
ELKO, NV       CLOUDY    20  12  71 E5        30.05F WCI  13
POCATELLO, ID  CLOUDY     5   1  83 NW6       30.06F WCI  -6
BURLEY, ID     CLOUDY    22  11  62 SW9       30.06F WCI  12
FORT BRIDGER,    N/A      6  -2  67 W7        30.01F WCI  -5
EVANSTON, WY   CLOUDY     5   0  79 S7        29.97F WCI  -7
ROCK SPRINGS,  CLOUDY     6   0  76 SW15      29.98F WCI -12
KEMMERER, WY   FLURRIES N/A N/A N/A CALM      29.96F

$$




USA.gov is the U.S. government's official web portal to all federal, state and local government web resources and services.